Regional Weather Roundup
Issued by NWS

Home | Current Version | Previous Version | Graphics & Text | Print | Product List | Glossary On
Versions: 1 2 3 4 5 6 7 8 9 10 11 12 13 14 15 16 17 18 19 20 21 22 23 24 25 26 27 28 29 30 31 32 33 34 35 36 37 38 39 40 41 42 43 44 45 46 47 48 49 50
580
ASUS43 KOAX 310110
RWRNE

WEATHER ROUNDUP FOR NEBRASKA
NATIONAL WEATHER SERVICE OMAHA NE
800 PM CDT SAT JUL 30 2016

NOTES: SATELLITE DATA IS BEING USED TO AUGMENT CLOUD COVER ABOVE
       12000 FEET.
       "FAIR" INDICATES FEW OR NO CLOUDS BELOW 12,000 FEET WITH NO
       SIGNIFICANT WEATHER AND/OR OBSTRUCTIONS TO VISIBILITY.

  * THESE STATIONS DO NOT REPORT WEATHER SUCH AS RAIN...SNOW OR FOG.

NEZ001>004-019>022-054>056-310200-
NEBRASKA PANHANDLE

CITY           SKY/WX    TMP DP  RH WIND       PRES   REMARKS
SCOTTSBLUFF    SUNNY     86  57  37 SE14      29.86F
ALLIANCE       SUNNY     82  59  45 S14       29.87F
CHADRON        SUNNY     87  58  37 S17       29.79F
KIMBALL        SUNNY     82  59  46 SE18      29.97F
SIDNEY         SUNNY     83  58  42 SE17G25   29.95F
$$

NEZ057>060-069>072-079>082-310200-
SOUTHWEST NEBRASKA

CITY           SKY/WX    TMP DP  RH WIND       PRES   REMARKS
NORTH PLATTE   CLEAR     81  67  62 SE9       29.89F
IMPERIAL       SUNNY     85  62  46 SE13      29.90S
LEXINGTON      CLEAR     82  68  63 SE9       29.90F
MCCOOK         CLEAR     86  64  47 SE13      29.88F
OGALLALA       SUNNY     87  59  38 SE12      29.89F
$$

NEZ005>010-023>029-035>040-094-310200-
NORTH CENTRAL NEBRASKA

CITY           SKY/WX    TMP DP  RH WIND       PRES   REMARKS
VALENTINE      CLOUDY    82  63  52 SE8       29.89R
AINSWORTH      CLOUDY    79  67  67 SE7       29.91R
BROKEN BOW     CLEAR     80  68  66 S10       29.91F
O`NEILL        CLEAR     76  66  69 SE12      29.92S
ORD            PTCLDY    80  68  66 SE10      29.90F
THEDFORD       SUNNY     83  68  60 SE14      29.91R
$$

NEZ041-046>049-061>064-073>077-083>087-310200-
SOUTH CENTRAL NEBRASKA

CITY           SKY/WX    TMP DP  RH WIND       PRES   REMARKS
GRAND ISLAND   CLEAR     78  69  73 SE10      29.93F
AURORA         CLEAR     78  69  75 SE8       29.93S
HASTINGS       CLEAR     78  67  68 SE13      29.94R
HEBRON         CLEAR     80  65  61 E5        29.93R
HOLDREGE       CLEAR     82  65  57 SE7       29.92S
KEARNEY *      CLEAR     81  70  69 SE9       29.93S
YORK           CLEAR     77  68  73 SE9       29.94S
$$

NEZ011>018-030>034-042>045-310200-
NORTHEAST NEBRASKA

CITY           SKY/WX    TMP DP  RH WIND       PRES   REMARKS
NORFOLK        MOCLDY    76  64  66 SE10      29.93F
ALBION         MOCLDY    75  66  74 SE9       29.93F
BLAIR          MOCLDY    76  67  74 SE5       29.95S
FREMONT        PTCLDY    77  65  67 SE8       29.94F
TEKAMAH        CLEAR     78  63  59 SE7       29.93F
WAYNE          CLEAR     76  65  70 SE7       29.95S
$$

NEZ050>053-065>068-078-088>093-310200-
SOUTHEAST NEBRASKA

CITY           SKY/WX    TMP DP  RH WIND       PRES   REMARKS
LINCOLN        CLEAR     79  68  69 SE8       29.94F
OMAHA EPPLEY   MOCLDY    79  65  62 SE12      29.94F
BEATRICE       CLEAR     78  68  71 E7        29.94S
FALLS CITY     CLEAR     77  69  76 SE6       29.93F
NEBRASKA CITY  CLEAR     76  66  71 SE5       29.95F
PLATTSMOUTH    CLEAR     75  66  73 E5        29.95F
$$

NEZ044-045-051>053-067-310200-
OMAHA AREA

CITY           SKY/WX    TMP DP  RH WIND       PRES   REMARKS
OMAHA EPPLEY   MOCLDY    79  65  62 SE12      29.94F
BLAIR          MOCLDY    76  67  74 SE5       29.95S
FREMONT        PTCLDY    77  65  67 SE8       29.94F
MILLARD        PTCLDY    77  67  71 SE7       29.94S
OFFUTT AFB     PTCLDY    77  65  67 SE9       29.94F
PLATTSMOUTH    CLEAR     75  66  73 E5        29.95F
WAHOO          FAIR      75  65  69 SE7       29.94F
$$




USA.gov is the U.S. government's official web portal to all federal, state and local government web resources and services.